Location: Cuiry
(49.3858°N, 3.7708°E)
Time: 07:02:26
(UTC+00:00)

SL-24 R/B - RUBIN 2 - Pass Details

Date: 12 January 2026
Orbit: 602 x 984 km, 64.6° (Epoch: 18 February)

Event Time Altitude Azimuth Distance (km) Brightness Sun altitude
Rises 18:04:17 0° 322° (NW) 2,901 7.4 -17.9°
Reaches altitude 10° 18:06:39 10° 328° (NNW) 1,970 6.4 -18.3°
Maximum altitude 18:10:54 47° 43° (NE) 801 3.7 -19.0°
Enters shadow 18:11:28 44° 68° (ENE) 837 3.7 -19.1°
